Location: Casteau
(50.5142°N, 4.0161°E)
Time: 21:08:54
(UTC+00:00)

Tiros 1 - Pass Details

Date: 05 August 2021
Orbit: 630 x 663 km, 48.4° (Epoch: 28 September)

Event Time Altitude Azimuth Distance (km) Brightness Sun altitude
Rises 16:22:23 0° 223° (SW) 2,984 11.3 26.7°
Reaches altitude 10° 16:24:55 10° 214° (SSW) 2,072 10.4 26.3°
Maximum altitude 16:29:09 32° 151° (SSE) 1,125 8.4 25.7°
Drops below altitude 10° 16:33:23 10° 89° (E) 2,066 9.3 25.0°
Sets 16:35:54 0° 79° (E) 2,974 10.0 24.6°
